Location: Allie Creek
(37.5926°N, 89.8526°W)
Time: 21:14:13
(UTC+00:00)

SL-16 R/B - Visible Passes

Search period start: 24 April 2024 00:00
Search period end: 04 May 2024 00:00
Orbit: 842 x 845 km, 71.0° (Epoch: 24 April)

Date Brightness Start Highest point End Pass type
(mag) Time Alt. Az. Time Alt. Az. Time Alt. Az.
24 Apr 4.3 03:14:48 13° NE 03:14:48 13° NE 03:15:27 10° NE visible
24 Apr 3.8 04:56:36 32° NNW 04:56:36 32° NNW 05:00:05 10° N visible
25 Apr 4.2 02:59:49 14° ENE 02:59:49 14° ENE 03:00:53 10° NE visible
25 Apr 3.5 04:41:35 37° NNW 04:41:35 37° NNW 04:45:37 10° N visible
26 Apr 4.0 02:44:40 16° ENE 02:44:40 16° ENE 02:46:18 10° NE visible
26 Apr 3.2 04:26:26 43° NW 04:26:26 43° NW 04:31:09 10° N visible
27 Apr 3.7 02:29:20 19° ENE 02:29:20 19° ENE 02:31:43 10° NE visible
27 Apr 3.0 04:11:05 47° WNW 04:11:12 47° WNW 04:16:40 10° N visible
28 Apr 3.5 02:13:41 20° E 02:13:41 20° E 02:17:08 10° NE visible
28 Apr 2.9 03:55:24 41° WSW 03:56:41 49° WNW 04:02:12 10° NNE visible
29 Apr 3.4 01:57:32 19° ESE 01:58:34 20° E 02:02:32 10° NE visible
29 Apr 2.9 03:39:12 26° SW 03:42:11 51° WNW 03:47:43 10° NNE visible
30 Apr 3.5 01:40:17 10° SE 01:44:05 19° E 01:47:55 10° ENE visible
30 Apr 2.8 03:22:09 10° SW 03:27:40 54° WNW 03:33:14 10° NNE visible
01 May 3.5 01:25:57 10° SE 01:29:37 18° E 01:33:18 10° ENE visible
01 May 2.8 03:07:37 10° SW 03:13:09 56° WNW 03:18:45 10° NNE visible
02 May 3.6 01:11:37 10° SE 01:15:08 17° E 01:18:40 10° ENE visible
02 May 2.7 02:53:05 10° SW 02:58:39 59° WNW 03:04:16 10° NNE visible
03 May 2.7 02:38:33 10° SW 02:44:09 61° WNW 02:49:46 10° NNE visible
